CAPE
192 312 368 522 522 654 800 814 662 630 613 686 673 662 654 716 657 556 487 423 379 298 214 159 69 5 0 0 0 42 485 508
427 461 420 611 587 335 551 680 596 514 372 274 294 384 267 145 424 249 177 118 63 23 1 0 0 0 0 0 0 0 297 266
628 518 408 250 104 225 167 552 640 484 461 210 289 700 506 411 22 19 5 0 0 0 0 0 0 0 0 0 0 0 15 33
923 1161 772 298 0 215 260 142 543 572 677 708 518 637 655 140 27 0 0 0 0 0 0 0 0 0 1 0 0 0 0 0
812 1727 1289 726 318 38 107 109 179 440 700 806 541 619 643 430 318 308 350 3 21 0 0 0 0 0 0 0 0 0 0 0
811 1948 1788 1031 350 127 88 86 270 270 615 482 423 340 340 231 15 0 2 4 1 3 2 4 6 2 0 0 0 0 0 0
744 1756 2441 1164 735 196 187 246 250 467 291 188 211 174 129 8 0 0 0 0 4 3 1 1 1 0 0 0 0 0 0 0
793 1529 2504 1372 206 286 171 249 193 199 31 25 56 131 156 71 41 26 5 0 0 0 0 0 0 0 0 0 0 0 0 0
928 1605 2202 1341 297 174 23 11 4 0 0 17 30 56 51 71 36 29 21 44 175 40 6 7 9 6 0 0 0 0 0 0
709 1447 1912 1184 225 76 14 6 0 0 9 19 12 26 31 51 20 41 70 115 42 20 6 4 8 11 21 1 0 0 0 0
582 1390 1427 802 224 76 50 43 34 24 30 23 0 15 5 28 33 45 154 81 154 137 94 129 53 25 10 30 14 0 0 0
494 1120 1036 387 125 53 8 1 0 0 1 0 0 4 0 0 1 26 42 23 87 128 217 158 183 165 28 35 110 23 0 6
539 519 87 38 14 0 0 0 0 0 0 0 0 0 0 0 0 0 5 0 22 95 106 135 158 278 255 226 187 125 82 13
0 0 0 0 0 0 0 0 0 2 7 0 0 0 0 0 0 0 0 0 3 31 95 62 119 227 303 298 205 129 195 155
0 0 0 0 0 0 0 0 0 0 0 0 0 0 0 0 0 0 0 0 0 14 29 55 58 87 279 290 212 163 215 220
0 0 0 0 0 0 0 0 0 0 0 0 0 0 0 0 0 0 0 0 7 7 7 14 51 24 63 58 161 186 68 95
0 0 0 0 0 0 0 0 0 0 0 0 0 0 0 0 0 0 0 0 5 13 20 13 7 4 3 2 0 10 29 0
0 0 0 0 0 0 0 0 0 0 0 0 0 0 0 0 0 0 1 13 22 6 4 6 8 4 2 3 4 6 8 7
0 0 0 0 0 0 0 0 0 1 1 1 0 0 0 0 0 7 23 22 8 13 13 16 2 0 0 2 4 5 6 8
0 0 0 0 5 5 5 11 8 6 4 2 0 0 0 0 15 29 17 35 36 25 32 29 28 15 8 16 17 18 13 2
CIN
-94 -91 -189 -171 -164 -130 -98 -80 -91 -92 -85 -71 -75 -74 -70 -58 -62 -63 -61 -66 -80 -108 -137 -152 -231 -69 0 0 0 -309 -43 -1
-27 -25 -19 -11 -83 -227 -151 -107 -115 -129 -147 -161 -159 -135 -133 -149 -74 -97 -100 -119 -166 -208 -269 0 0 0 0 0 0 0 -47 -6
0 0 -8 -41 -97 -150 -250 -146 -116 -145 -126 -170 -199 -6 -1 -19 -231 -144 -157 0 0 0 0 0 0 0 0 0 0 0 -62 -43
0 0 -6 -47 0 -63 -54 -73 -3 -2 0 0 0 0 -2 -23 -33 0 0 0 0 0 0 0 0 0 -2 0 0 0 0 0
0 0 -7 -10 -17 -57 -15 -14 -8 0 0 0 0 0 0 0 -2 -5 -5 -56 -1 0 0 0 0 0 0 0 0 0 0 0
0 0 -7 -13 -8 -11 -36 -29 -3 -4 -1 -3 -1 0 0 0 -3 0 0 0 0 -1 0 0 -1 0 0 0 0 0 0 0
0 0 0 -8 -18 -19 -40 -35 -20 -24 -17 -26 -27 -24 -15 -9 0 0 0 0 0 0 0 0 0 0 0 0 0 0 0 0
0 0 0 0 -30 -40 -44 -43 -24 -21 -38 -38 -46 -30 -19 -31 -29 -27 -14 0 0 0 0 0 0 0 0 0 0 0 0 0
-1 0 0 -10 -29 -43 -57 -44 -4 0 0 -54 -59 -44 -34 -33 -19 -9 -2 0 0 0 0 0 0 0 0 0 0 0 0 0
-1 -1 0 -14 -25 -52 -78 -81 -13 -11 -59 -40 -47 -47 -46 -40 -32 -20 -12 -11 -9 -11 -5 0 0 0 0 0 0 0 0 0
-1 0 -1 -7 -38 -55 -71 -76 -69 -30 -29 -28 0 -66 -43 -64 -46 -37 -15 -19 -4 -1 -1 0 -7 -17 -1 0 0 0 0 0
-23 -2 -2 -44 -59 -86 -82 -23 -17 -8 -28 0 0 -71 0 0 -14 -42 -42 -40 -15 -4 0 0 0 0 -7 0 0 -1 0 0
-31 -30 -137 -97 -97 0 0 0 0 0 -16 -3 -17 0 0 0 0 0 -60 0 -33 -20 -5 0 0 0 0 0 0 0 0 -17
0 0 0 0 0 0 0 0 -2 -62 -41 0 0 0 0 0 0 0 0 0 -34 -12 0 -3 0 0 0 0 0 0 0 0
0 0 0 0 0 0 0 0 -26 0 0 0 0 0 0 0 0 0 0 0 0 -7 -4 -1 -1 -5 0 0 0 0 0 0
0 0 0 0 0 0 0 0 0 0 0 0 0 0 0 0 0 0 0 0 0 0 -2 -1 -4 -18 -5 -1 -4 -4 0 -3
0 0 0 0 0 0 0 0 0 0 0 0 0 0 0 0 0 0 0 0 0 0 0 0 0 0 0 0 0 -20 -1 0
0 0 0 0 0 0 0 0 0 0 0 0 0 0 0 0 0 0 0 0 0 -5 0 0 0 0 0 0 0 0 0 0
0 0 0 0 0 0 0 0 0 0 0 0 0 0 0 0 0 0 0 -3 -8 -1 0 0 -5 0 0 0 0 0 0 0
0 0 0 0 0 0 0 0 0 0 0 0 0 0 0 0 0 -1 -5 -2 -2 -5 0 0 0 0 0 0 0 0 0 0
Wind_Speed
11 11 10 7 7 7 7 8 8 7 7 7 7 7 7 7 8 8 7 7 7 6 5 4 3 2 3 4 6 10 10 7
8 8 8 8 11 9 8 7 6 6 6 5 4 6 7 6 6 7 5 5 4 3 2 1 2 3 3 5 9 12 12 5
5 7 5 4 4 9 9 8 7 7 8 7 8 4 2 9 10 5 3 2 1 1 2 4 8 10 10 8 10 9 5 7
9 5 5 3 2 3 4 4 2 3 4 4 3 4 5 5 4 9 8 7 9 10 9 10 11 8 6 11 7 6 7 6
8 6 4 1 5 4 0 1 2 2 1 5 5 4 4 4 2 4 3 10 5 9 7 7 8 6 7 7 7 7 6 5
8 6 5 3 3 2 3 2 3 2 7 3 5 4 5 5 4 6 6 5 6 6 5 6 7 8 8 8 8 7 6 4
9 8 6 4 3 2 2 3 1 5 2 4 3 5 5 6 6 6 6 6 6 7 7 8 8 8 8 8 9 8 8 6
8 8 7 5 4 1 2 2 0 3 1 4 2 3 4 6 6 7 7 7 7 7 9 9 9 9 9 9 9 10 9 9
6 6 6 6 5 3 3 1 2 1 0 2 0 3 4 6 7 7 8 8 8 8 9 9 9 9 11 9 9 10 10 10
4 5 6 8 4 2 2 1 3 3 3 2 2 3 5 6 7 8 8 8 9 9 9 10 10 10 9 9 10 9 11 11
4 6 6 6 5 4 1 2 5 4 3 4 3 5 6 7 7 9 9 9 9 9 10 10 10 11 12 11 10 10 10 11
1 4 4 1 2 2 4 4 5 3 4 4 6 7 7 8 8 10 9 10 10 9 11 11 11 11 13 12 11 10 10 10
6 6 6 4 3 4 4 3 4 5 5 6 6 7 9 10 9 10 10 10 10 11 11 12 11 11 12 11 12 13 13 11
6 6 5 4 2 5 3 5 5 6 5 7 8 6 8 9 8 10 12 10 11 11 11 10 11 10 12 12 13 12 12 14
8 7 7 7 7 3 5 5 5 5 6 9 9 11 11 10 10 10 11 11 10 10 11 13 11 11 13 12 13 14 11 10
7 6 6 6 7 6 5 5 7 8 8 9 11 14 14 12 12 12 11 10 11 10 10 11 12 12 10 11 11 10 8 11
5 5 5 6 5 5 6 9 9 9 9 10 12 12 13 14 13 12 11 10 10 10 8 10 9 8 8 10 11 10 9 5
5 6 7 5 7 8 8 9 9 9 10 10 9 10 11 13 14 11 11 9 7 6 6 6 5 5 5 6 4 3 4 3
7 9 10 9 8 8 9 10 11 11 12 10 14 11 11 12 13 10 8 6 4 4 4 4 2 2 3 2 1 3 3 2
7 10 11 12 11 11 10 12 9 10 12 12 11 11 11 13 10 8 7 5 3 3 3 3 4 3 4 5 4 3 3 3
Wind_Direction
140 137 126 124 119 108 90 79 82 84 87 91 91 91 87 86 87 81 77 71 66 68 72 74 68 44 2 333 306 294 291 308
133 151 145 156 145 115 107 107 112 114 119 122 149 155 144 143 127 84 72 72 80 95 114 187 240 238 244 273 282 280 264 285
145 128 105 92 79 123 156 153 173 166 166 174 229 234 180 166 84 98 112 120 123 179 258 257 249 237 221 227 260 261 329 286
142 140 102 100 100 111 124 135 118 38 29 11 323 18 27 322 157 174 188 198 211 210 210 234 244 271 203 216 248 345 296 289
149 144 135 288 66 11 246 275 67 104 125 8 1 345 28 306 344 199 201 201 259 208 209 241 349 311 310 313 302 287 268 291
159 149 166 190 306 333 13 246 46 301 45 354 355 334 1 356 332 334 304 325 325 286 304 306 280 280 285 282 277 277 275 287
165 169 195 182 197 331 335 307 197 30 332 48 5 342 1 336 342 315 319 311 301 306 307 302 294 276 264 274 273 269 271 273
181 185 193 191 241 171 300 202 243 215 99 63 44 347 351 321 325 315 307 311 314 317 315 310 302 298 277 258 266 277 265 257
196 194 181 204 209 211 286 356 310 274 271 163 275 290 329 314 306 309 309 317 306 285 288 284 278 278 279 255 253 252 258 264
204 198 191 200 223 200 282 277 272 261 265 299 317 309 303 297 296 301 307 306 295 295 292 287 284 279 268 268 274 252 249 239
249 189 208 200 172 272 183 264 245 264 321 286 336 313 305 297 295 298 304 294 288 289 288 284 279 274 271 269 255 259 260 244
238 167 184 50 316 234 252 240 264 267 271 310 345 319 326 310 298 291 293 289 288 290 297 294 291 288 288 283 288 272 245 248
66 113 42 300 304 323 304 295 326 288 308 9 325 346 324 313 306 307 301 293 298 298 290 283 279 281 275 268 257 252 251 249
76 80 50 13 17 349 340 321 309 326 289 348 300 334 304 303 321 302 304 301 295 289 286 284 278 275 277 280 275 266 247 229
67 68 58 45 356 10 345 302 268 303 329 305 311 307 307 305 295 308 301 296 288 293 295 290 287 282 284 277 279 271 274 259
76 55 48 44 30 8 346 319 309 329 292 313 330 310 294 308 310 308 305 299 292 290 290 313 308 293 287 284 294 316 303 290
40 23 29 30 359 332 319 318 324 325 312 302 322 307 321 315 318 314 310 299 305 308 342 352 342 337 356 342 324 312 321 326
10 345 343 344 338 334 333 321 306 312 317 315 317 324 315 318 319 316 299 292 333 9 9 17 10 18 7 14 12 360 357 351
340 343 335 338 331 317 314 315 318 314 323 326 325 318 318 315 322 306 305 22 13 2 349 11 343 322 305 312 195 169 179 186
330 325 319 332 329 327 325 326 327 328 334 329 318 315 316 314 310 334 8 39 138 225 4 283 260 270 266 255 272 249 230 259